SCP
1 1 1 1 1 1 1 1 1 1 1 1 1 1 1 1 1 1 1 1 1 1 1 0 0 0 0 0 0 0 1 1 1 1 1 1 1 1 0 0 0 0 0
1 1 1 1 1 1 1 2 1 1 1 1 1 1 1 1 1 1 1 1 1 1 1 1 1 1 1 0 0 1 1 1 1 1 1 1 1 1 1 0 0 0 0
1 1 1 1 1 1 2 2 2 2 2 2 2 1 1 1 1 1 1 1 1 1 1 1 1 1 1 1 1 1 1 1 1 1 1 1 1 1 1 1 0 0 0
1 1 1 1 1 1 2 2 2 2 2 2 2 2 2 2 1 1 1 1 1 1 1 1 1 1 1 1 1 1 1 1 1 1 1 1 1 1 1 1 1 0 0
0 0 1 1 1 1 1 2 2 2 2 2 2 2 2 2 1 1 1 1 1 1 1 1 1 1 1 1 1 1 1 1 1 2 2 2 1 1 1 1 1 1 0
0 0 0 1 1 1 1 1 2 2 2 2 2 2 2 2 1 1 1 1 1 1 1 1 1 1 1 1 1 1 1 1 1 2 2 2 2 1 1 1 1 1 1
0 0 0 0 1 1 1 1 1 2 2 2 2 2 2 2 1 1 1 1 1 1 1 1 1 1 1 1 1 1 1 1 1 2 2 2 2 1 1 1 1 1 1
0 0 0 0 0 1 1 1 1 1 2 2 2 2 2 1 1 1 1 1 1 1 1 1 1 1 1 1 1 1 1 1 1 1 2 2 2 1 1 1 1 1 1
0 0 0 0 0 0 0 1 1 1 1 2 2 2 2 2 1 1 1 1 1 1 1 1 1 1 1 1 1 1 1 1 1 1 1 1 1 1 1 1 1 1 1
0 0 0 0 0 0 0 0 1 1 1 1 1 2 2 2 1 1 1 1 1 1 1 1 1 1 1 1 1 1 1 1 1 1 1 1 1 1 1 1 1 1 1
0 0 0 0 0 0 0 0 0 1 1 1 1 1 1 1 1 1 1 1 1 1 1 1 1 1 1 1 1 0 0 0 0 1 1 1 1 1 1 1 1 1 1
0 0 0 0 0 0 0 0 0 0 1 1 1 1 1 1 1 1 1 1 1 1 1 1 1 1 1 1 0 0 0 0 0 0 0 0 0 1 1 1 1 1 1
0 0 0 0 0 0 0 0 0 0 0 1 1 1 1 1 1 1 1 1 1 1 1 1 1 1 1 1 0 0 0 0 0 0 0 0 0 0 0 0 1 1 1
0 0 0 0 0 0 0 0 0 0 0 0 0 1 1 1 1 1 1 1 1 1 1 1 1 1 1 0 0 0 0 0 0 0 0 0 0 0 0 0 0 0 0
0 0 0 0 0 0 0 0 0 0 0 0 0 1 1 1 1 1 1 1 1 1 1 1 1 1 1 0 0 0 0 0 0 0 0 0 0 0 0 0 0 0 0
0 0 0 0 0 0 0 0 0 0 0 0 0 0 1 1 1 1 1 1 1 1 1 1 1 1 0 0 0 0 0 0 0 0 0 0 0 0 0 0 0 0 0
0 0 0 0 0 0 0 0 0 0 0 0 0 0 0 0 1 1 1 1 1 1 1 1 1 1 0 0 0 0 0 0 0 0 0 0 0 0 0 0 0 0 0
1 0 0 0 0 0 0 0 0 0 0 0 0 0 0 0 0 1 1 1 1 1 1 1 0 0 0 0 0 0 0 0 0 0 0 0 0 0 0 0 0 0 0
1 0 0 0 0 0 0 0 0 0 0 0 0 0 0 0 0 0 1 1 1 1 1 0 0 0 0 0 0 0 0 0 0 0 0 0 0 0 0 0 0 0 0
0 0 0 0 0 0 0 0 0 0 0 0 0 0 0 0 0 0 0 0 0 0 0 0 0 0 0 0 0 0 0 0 0 0 0 0 0 0 0 0 0 0 0
0 0 0 0 0 0 0 0 0 0 0 0 0 0 0 0 0 0 0 0 0 0 0 0 0 0 0 0 0 0 0 0 0 0 0 0 0 0 0 0 0 0 0
0 0 0 0 0 0 0 0 0 0 0 0 0 0 0 0 0 0 0 0 0 0 0 0 0 0 0 0 0 0 0 0 0 0 0 0 0 0 0 0 0 0 0
0 0 0 0 0 0 0 0 0 0 0 0 0 0 0 0 0 0 0 0 0 0 0 0 0 0 0 0 0 0 0 0 0 0 0 0 0 0 0 0 0 0 0
0 0 0 0 0 0 0 0 0 0 0 0 0 0 0 0 0 0 0 0 0 0 0 0 0 0 0 0 0 0 0 0 0 0 0 0 0 0 0 0 0 0 0
0 0 0 0 0 0 0 0 0 0 0 0 0 0 0 0 0 0 0 0 0 0 0 0 0 0 0 0 0 0 0 0 0 0 0 0 0 0 0 0 0 0 0
0 0 0 0 0 0 0 0 0 0 0 0 0 0 0 0 0 0 0 0 0 0 0 0 0 0 0 0 0 0 0 0 0 0 0 0 0 0 0 0 0 0 0
Wind_Speed
8 7 6 6 9 8 7 8 8 8 9 10 10 10 11 10 10 9 6 8 11 13 14 14 14 14 13 14 15 16 17 18 19 20 21 22 22 22 21 21 20 19 19
8 8 8 8 9 8 8 7 9 8 8 8 10 10 11 11 10 10 9 8 11 13 13 14 14 14 13 14 14 15 16 17 18 19 21 22 22 22 22 22 21 20 20
9 9 9 9 9 8 9 8 10 8 9 9 10 11 10 10 10 10 10 8 8 11 14 14 14 14 14 14 14 14 15 15 16 18 20 21 22 22 22 22 21 21 20
9 9 9 9 9 8 8 8 8 8 9 8 8 8 8 8 10 10 10 9 8 9 10 13 14 14 14 16 16 15 15 15 16 18 19 21 22 22 22 22 22 21 20
8 8 8 8 9 9 9 9 8 8 9 9 8 8 9 9 9 10 11 11 10 10 10 9 12 14 15 17 17 17 16 16 16 18 20 21 22 22 22 22 22 21 20
7 8 8 9 9 9 9 8 10 10 9 8 9 10 9 9 9 10 11 11 10 12 12 12 10 10 15 16 17 18 18 17 17 18 20 21 22 22 22 22 22 22 21
7 7 8 8 8 8 9 11 10 12 10 8 8 9 10 12 12 11 11 11 12 11 10 11 10 9 8 13 16 17 17 18 16 17 19 20 21 21 22 22 22 22 21
7 7 8 9 9 8 10 10 10 9 9 7 7 7 8 9 11 12 11 11 11 9 10 12 11 9 10 8 7 11 13 15 16 16 17 18 20 20 21 22 22 22 21
7 7 9 9 9 10 9 9 10 11 10 9 8 8 7 8 6 7 11 10 10 9 9 10 11 11 10 9 8 7 8 9 12 14 14 15 17 18 20 21 22 22 21
7 8 8 9 9 10 10 11 10 9 11 10 9 9 11 9 7 6 6 9 10 10 10 8 9 9 9 7 4 1 1 3 5 8 8 10 12 14 17 19 22 22 22
6 8 8 8 9 9 10 11 11 11 10 11 10 9 10 10 12 10 9 7 7 8 7 7 6 6 5 5 4 2 3 1 1 0 1 2 5 9 13 17 20 21 22
6 7 8 8 9 9 10 11 11 12 11 12 11 10 10 9 9 10 11 10 7 6 6 4 4 3 3 3 2 6 5 4 4 4 4 3 1 2 7 12 16 19 21
6 7 8 8 9 9 10 11 11 12 12 13 12 11 10 11 10 9 10 9 8 5 4 3 3 3 3 2 4 6 7 6 7 7 8 7 6 5 2 3 8 12 16
7 8 9 10 10 11 11 10 11 12 11 12 13 13 10 10 10 10 9 8 7 6 5 4 3 2 2 3 5 3 7 8 9 9 9 10 10 10 10 8 4 1 4
7 8 9 10 10 11 11 11 10 11 11 12 12 12 11 10 9 9 8 8 8 6 5 4 3 2 3 3 4 5 7 10 10 10 10 11 12 12 12 12 11 10 8
8 9 9 10 10 11 10 11 11 10 11 11 9 11 10 9 8 8 8 7 7 6 3 3 3 4 4 5 5 7 10 12 12 11 11 11 12 13 13 13 14 13 12
9 9 9 10 10 10 10 10 11 11 11 10 9 10 10 10 8 7 6 6 6 5 4 4 4 4 5 6 6 7 7 8 10 12 12 12 12 13 13 14 14 14 14
10 9 9 9 10 9 9 9 10 9 9 9 8 8 8 7 7 5 4 5 4 5 6 8 5 4 5 7 7 7 7 8 9 12 13 13 12 13 13 13 13 13 12
10 10 9 9 9 9 9 8 8 7 7 6 6 5 5 4 4 3 3 4 4 5 6 7 6 3 4 6 8 8 9 7 9 11 12 12 12 12 12 12 12 11 11
11 11 10 9 9 8 8 7 6 5 4 4 4 3 2 1 2 3 4 5 6 7 8 8 7 5 5 5 6 7 7 7 7 8 8 9 11 12 12 12 12 11 10
11 11 11 10 9 8 6 5 5 3 2 2 3 3 4 5 6 4 5 7 8 8 7 7 7 6 6 6 6 7 8 8 7 5 7 7 7 7 9 10 12 11 9
11 11 11 11 10 7 2 1 5 3 1 1 3 4 6 8 11 12 12 10 8 8 7 6 6 7 7 6 5 6 7 7 7 4 5 6 6 7 8 9 10 10 9
10 11 11 11 11 7 5 4 5 4 3 3 4 5 6 8 8 10 12 13 12 10 6 5 8 8 8 7 6 6 5 6 6 4 4 6 6 7 8 9 9 9 9
9 9 10 11 10 8 9 8 6 6 4 4 5 7 8 8 8 9 10 11 11 10 8 8 8 8 8 6 6 7 8 8 7 4 1 5 5 5 6 8 8 7 7
9 9 9 10 10 8 10 11 9 7 6 6 6 7 8 9 9 9 12 13 12 10 13 15 13 12 11 8 3 5 6 6 7 6 2 3 4 4 5 5 7 7 6
10 9 9 8 10 9 10 13 12 8 8 8 7 7 8 10 8 7 11 12 12 11 11 12 10 10 9 8 5 3 3 4 6 6 3 1 3 3 5 5 4 4 4
Wind_Direction
260 264 265 264 266 264 253 248 256 256 254 254 258 257 258 260 258 259 256 223 224 235 244 250 249 248 244 238 234 232 230 226 221 218 217 218 219 220 221 221 221 221 221
270 272 269 265 266 267 266 262 258 255 252 252 253 255 258 259 258 259 262 248 223 228 240 248 251 250 249 246 241 237 233 227 221 216 215 217 218 220 221 221 222 222 222
271 270 272 269 267 266 261 257 259 256 249 245 245 249 250 251 256 258 262 267 261 233 228 237 244 249 253 253 249 244 238 230 222 216 214 215 216 218 220 221 221 221 222
278 276 275 275 276 273 267 261 256 256 253 250 250 252 254 251 254 256 255 252 258 265 245 228 232 241 250 256 256 251 244 236 226 218 214 214 215 217 218 219 220 220 220
289 283 280 282 283 276 271 269 266 260 258 253 249 247 248 250 248 251 252 252 250 253 259 251 230 233 244 253 254 253 248 241 230 222 217 215 215 216 216 218 219 218 218
302 300 288 288 289 281 277 271 270 262 259 255 256 255 247 247 246 246 249 248 247 249 251 258 255 239 232 238 245 250 251 247 236 227 221 217 216 215 215 216 217 217 217
316 306 301 305 292 285 284 282 276 270 262 255 255 253 248 244 245 245 243 244 244 246 253 256 256 260 249 227 229 239 246 249 242 233 226 221 218 215 213 214 215 216 216
313 304 310 301 297 293 282 280 278 275 272 255 245 256 258 247 234 235 235 236 241 242 244 246 246 247 258 263 242 227 239 247 246 240 232 224 219 215 213 213 214 214 214
307 308 304 300 301 291 286 286 281 274 273 265 244 245 253 254 252 224 226 232 234 235 238 243 243 246 248 255 261 235 234 241 246 243 237 228 221 216 213 214 213 212 212
305 307 303 301 297 293 291 283 278 277 271 267 255 242 249 267 267 254 223 224 226 231 238 243 245 243 245 250 248 277 246 245 243 240 238 234 225 218 216 215 214 212 210
300 304 307 304 300 293 293 291 287 277 270 266 263 256 250 247 246 255 254 234 223 223 226 233 243 249 245 241 238 141 123 123 118 188 231 247 235 226 220 218 218 214 211
305 310 310 306 298 297 294 288 284 277 270 269 266 259 251 246 237 237 245 244 239 225 212 219 232 230 221 208 137 104 106 94 85 81 74 58 3 248 231 225 222 219 215
309 319 312 304 299 296 291 287 281 277 272 267 262 257 253 250 253 250 249 248 243 228 202 197 200 195 183 162 122 119 100 89 83 78 76 70 59 46 26 243 229 225 220
307 315 303 298 297 296 293 289 282 276 271 268 264 260 257 253 249 246 245 243 236 222 205 189 161 156 140 129 106 133 105 89 83 78 76 74 67 59 53 49 55 110 188
292 297 298 297 298 299 297 294 282 280 277 271 266 261 254 252 248 244 241 238 235 224 205 180 155 134 128 116 129 124 106 91 84 79 75 75 72 67 62 59 61 66 77
283 287 290 294 298 299 298 294 289 282 278 273 267 263 259 254 247 241 236 233 232 232 206 155 138 135 129 123 112 109 104 100 83 81 78 77 75 71 68 67 67 68 72
275 278 284 290 294 298 302 300 297 296 287 282 276 265 259 255 249 241 232 226 219 207 173 129 117 120 123 120 118 118 121 110 94 82 82 80 78 75 71 69 68 68 69
268 270 278 284 288 296 302 303 303 304 297 290 285 276 266 255 242 235 222 210 197 182 156 136 126 123 117 117 114 112 108 102 99 89 85 83 81 79 76 73 71 68 66
269 267 270 276 285 292 296 301 305 310 312 311 306 294 284 260 229 206 190 167 150 137 129 130 124 112 117 121 119 111 105 108 107 112 101 92 85 81 78 74 72 69 66
274 266 263 268 275 281 286 294 301 313 327 333 340 337 321 267 163 147 137 131 127 124 125 124 124 126 125 139 137 129 121 111 106 106 98 103 103 95 86 76 69 65 62
280 272 265 263 263 266 274 293 295 303 327 357 21 28 45 71 87 107 120 123 127 126 127 130 134 137 141 153 143 132 121 119 107 112 120 121 120 105 98 87 70 59 56
288 279 268 263 259 257 130 310 287 263 241 72 75 73 79 84 85 85 87 89 102 125 132 137 138 134 135 137 130 141 145 139 120 105 112 105 98 89 76 69 57 54 51
295 286 275 264 256 238 171 199 253 258 195 145 119 109 96 93 96 101 94 89 78 72 86 113 120 122 124 125 136 131 101 96 90 106 124 113 106 99 95 82 71 62 54
297 289 281 272 260 232 183 192 213 225 174 145 133 124 119 119 115 117 113 104 93 76 77 93 99 99 99 98 101 105 113 117 116 95 104 116 116 112 107 101 99 82 68
295 290 281 276 264 237 189 189 207 198 164 150 143 136 133 127 124 128 121 114 107 97 77 76 78 82 71 58 59 151 159 147 123 102 71 107 120 124 111 106 122 133 109
284 285 278 273 266 251 200 191 207 203 166 152 142 138 136 134 140 142 134 130 125 122 119 112 107 114 106 90 52 63 134 136 130 110 76 83 124 153 129 96 68 74 99